DW0494 Weather Reports


Display with metric or nautical units.
time (UTC)temp
F
wind
direction
speed
MPH
gust
MPH
rain 1hr
in
rain 24hr
in
rain mn
in
humidity
%
barometer
mb
20260509160404 67 220 0.0 1.0 0.00 0.00 0.00 84 1017.6
20260509155904 67 231 0.0 1.0 0.00 0.00 0.00 84 1017.6
20260509155404 67 185 0.0 1.0 0.00 0.00 0.00 84 1017.5
20260509154904 67 206 0.0 1.0 0.00 0.00 0.00 84 1017.5
20260509154404 67 199 0.0 3.0 0.00 0.00 0.00 83 1017.5
20260509153904 67 200 2.0 3.0 0.00 0.00 0.00 83 1017.5
20260509153403 67 205 1.0 3.0 0.00 0.00 0.00 83 1017.5
20260509152904 67 206 1.0 3.0 0.00 0.00 0.00 83 1017.4
20260509152404 68 206 2.0 3.0 0.00 0.00 0.00 82 1017.4
20260509151904 68 214 2.0 3.0 0.00 0.00 0.00 82 1017.4
20260509151404 69 207 2.0 3.0 0.00 0.00 0.00 81 1017.4
20260509150403 69 219 1.0 2.0 0.00 0.00 0.00 80 1017.3
20260509145904 69 192 0.0 3.0 0.00 0.00 0.00 81 1017.2
20260509145404 69 160 2.0 6.0 0.00 0.00 0.00 81 1017.3
20260509144904 69 215 2.0 6.0 0.00 0.00 0.00 81 1017.2
20260509144404 69 213 2.0 6.0 0.00 0.00 0.00 80 1017.3
20260509143904 70 201 1.0 3.0 0.00 0.00 0.00 80 1017.2
20260509143404 69 155 1.0 3.0 0.00 0.00 0.00 81 1017.2
20260509142903 69 214 1.0 3.0 0.00 0.00 0.00 81 1017.2
20260509142404 69 206 0.0 3.0 0.00 0.00 0.00 81 1017.2
20260509141904 69 243 1.0 3.0 0.00 0.00 0.00 80 1017.2
20260509141403 69 228 2.0 3.0 0.00 0.00 0.00 79 1017.3
20260509140903 69 220 1.0 3.0 0.00 0.00 0.00 79 1017.3
20260509140404 69 214 1.0 3.0 0.00 0.00 0.00 78 1017.2
20260509135904 69 218 1.0 5.0 0.00 0.00 0.00 77 1017.2
20260509135403 69 210 2.0 5.0 0.00 0.00 0.00 77 1017.3
20260509134904 69 242 1.0 3.0 0.00 0.00 0.00 76 1017.2
20260509134405 69 151 0.0 3.0 0.00 0.00 0.00 76 1017.2
20260509133906 70 211 2.0 3.0 0.00 0.00 0.00 75 1017.3
20260509133404 70 211 1.0 5.0 0.00 0.00 0.00 75 1017.3
20260509132404 70 219 2.0 5.0 0.00 0.00 0.00 73 1017.4
20260509130905 71 218 1.0 3.0 0.00 0.00 0.00 73 1017.2
20260509130404 71 253 2.0 3.0 0.00 0.00 0.00 72 1017.3
20260509125904 71 225 1.0 3.0 0.00 0.00 0.00 71 1017.2
20260509125405 72 223 2.0 5.0 0.00 0.00 0.00 71 1017.3
20260509124406 72 224 2.0 7.0 0.00 0.00 0.00 70 1017.2
20260509123403 75 228 1.0 6.0 0.00 0.00 0.00 69 1017.4
20260509122903 75 217 2.0 6.0 0.00 0.00 0.00 69 1017.3
20260509122405 75 234 2.0 6.0 0.00 0.00 0.00 69 1017.4
20260509121903 74 222 2.0 6.0 0.00 0.00 0.00 70 1017.3
20260509121403 74 216 3.0 6.0 0.00 0.00 0.00 68 1017.3
20260509120904 74 227 2.0 3.0 0.00 0.00 0.00 68 1017.3
20260509115905 74 249 2.0 3.0 0.00 0.00 0.00 69 1017.3
20260509115404 73 285 1.0 3.0 0.00 0.00 0.00 68 1017.3
20260509114904 74 244 1.0 3.0 0.00 0.00 0.00 68 1017.4
20260509114404 73 347 1.0 6.0 0.00 0.00 0.00 70 1017.5
20260509113905 72 276 2.0 6.0 0.00 0.00 0.00 72 1017.5
20260509112904 71 257 0.0 3.0 0.00 0.00 0.00 73 1017.5
20260509112404 70 247 1.0 3.0 0.00 0.00 0.00 73 1017.5
20260509111404 70 270 1.0 5.0 0.00 0.00 0.00 72 1017.5
20260509110904 70 238 1.0 5.0 0.00 0.00 0.00 72 1017.6
20260509110404 70 230 2.0 5.0 0.00 0.00 0.00 70 1017.7
20260509105904 70 237 2.0 3.0 0.00 0.00 0.00 70 1017.7
20260509104906 71 242 1.0 3.0 0.00 0.00 0.00 70 1017.7
20260509104404 70 208 1.0 3.0 0.00 0.00 0.00 70 1017.7
20260509103905 70 266 1.0 5.0 0.00 0.00 0.00 69 1017.8
20260509103404 70 322 1.0 5.0 0.00 0.00 0.00 67 1017.9
20260509102403 71 214 1.0 3.0 0.00 0.00 0.00 69 1017.9
20260509101403 70 217 1.0 5.0 0.00 0.00 0.00 70 1017.9
20260509100904 70 236 3.0 5.0 0.00 0.00 0.00 68 1018.0
20260509095904 71 215 0.0 3.0 0.00 0.00 0.00 71 1018.1
20260509095404 70 204 1.0 5.0 0.00 0.00 0.00 70 1018.1
20260509094906 70 272 2.0 5.0 0.00 0.00 0.00 70 1018.2
20260509094406 70 236 2.0 5.0 0.00 0.00 0.00 69 1018.2
20260509093904 70 223 1.0 5.0 0.00 0.00 0.00 70 1018.2
20260509093403 70 236 2.0 5.0 0.00 0.00 0.00 72 1018.2
20260509092903 70 244 1.0 6.0 0.00 0.00 0.00 72 1018.2
20260509091905 69 232 2.0 6.0 0.00 0.00 0.00 73 1018.3
20260509091404 69 227 1.0 5.0 0.00 0.00 0.00 74 1018.4
20260509090905 69 229 1.0 5.0 0.00 0.00 0.00 74 1018.4
20260509090404 70 261 1.0 5.0 0.00 0.00 0.00 73 1018.3
20260509085904 70 270 2.0 5.0 0.00 0.00 0.00 75 1018.3
20260509085404 70 232 1.0 5.0 0.00 0.00 0.00 74 1018.4
20260509084904 70 231 1.0 5.0 0.00 0.00 0.00 74 1018.5
20260509084406 70 30 0.0 3.0 0.00 0.00 0.00 72 1018.4
20260509083904 70 223 2.0 3.0 0.00 0.00 0.00 74 1018.5
20260509083404 70 240 1.0 3.0 0.00 0.00 0.00 76 1018.5
20260509082906 69 187 1.0 3.0 0.00 0.00 0.00 74 1018.6
20260509082404 70 103 0.0 2.0 0.00 0.00 0.00 74 1018.5
20260509081903 70 248 1.0 2.0 0.00 0.00 0.00 74 1018.6
20260509081405 69 322 0.0 3.0 0.00 0.00 0.00 76 1018.6
20260509080903 68 202 1.0 3.0 0.00 0.00 0.00 79 1018.6
20260509080403 67 219 1.0 3.0 0.00 0.00 0.00 79 1018.7
20260509075904 66 259 1.0 3.0 0.00 0.00 0.00 79 1018.7
20260509074404 65 283 0.0 2.0 0.00 0.00 0.00 82 1018.7
20260509073904 65 356 0.0 2.0 0.00 0.00 0.00 83 1018.7
20260509073404 64 46 1.0 2.0 0.00 0.00 0.00 84 1018.7
20260509072906 64 7 1.0 2.0 0.00 0.00 0.00 86 1018.6
20260509072404 64 324 0.0 2.0 0.00 0.00 0.00 85 1018.7
20260509071904 63 251 0.0 1.0 0.00 0.00 0.00 86 1018.8
20260509071406 63 245 0.0 1.0 0.00 0.00 0.00 86 1018.9
20260509070904 63 245 0.0 1.0 0.00 0.00 0.00 86 1018.9
20260509070405 62 212 0.0 2.0 0.00 0.00 0.00 87 1018.9
20260509065904 62 198 1.0 2.0 0.00 0.00 0.00 88 1018.9
20260509064904 62 177 0.0 1.0 0.00 0.00 0.00 89 1018.9
20260509064403 59 173 0.0 0.0 0.00 0.00 0.00 89 1018.9
20260509063405 57 0 0.0 0.0 0.00 0.00 0.00 88 1018.8
20260509062903 57 0 0.0 0.0 0.00 0.00 0.00 88 1018.9
20260509062404 57 0 0.0 0.0 0.00 0.00 0.00 88 1018.8
20260509061904 57 0 0.0 0.0 0.00 0.00 0.00 88 1018.8
20260509061406 57 0 0.0 0.0 0.00 0.00 0.00 88 1018.8
20260509060903 57 0 0.0 0.0 0.00 0.00 0.00 88 1018.9
20260509060404 57 0 0.0 0.0 0.00 0.00 0.00 88 1018.8
20260509055903 57 0 0.0 0.0 0.00 0.00 0.00 88 1018.8
20260509055405 57 0 0.0 0.0 0.00 0.00 0.00 88 1018.8
20260509054904 57 0 0.0 0.0 0.00 0.00 0.00 88 1018.7
20260509054403 57 0 0.0 0.0 0.00 0.00 0.00 88 1018.6
20260509053903 57 0 0.0 0.0 0.00 0.00 0.00 88 1018.5
20260509053405 57 0 0.0 0.0 0.00 0.00 0.00 88 1018.6
20260509051904 57 0 0.0 0.0 0.00 0.00 0.00 88 1018.5
20260509050405 57 0 0.0 0.0 0.00 0.00 0.00 88 1018.5
20260509045903 57 0 0.0 0.0 0.00 0.00 0.00 88 1018.3
20260509045404 57 0 0.0 0.0 0.00 0.00 0.00 88 1018.5
20260509044905 57 0 0.0 0.0 0.00 0.00 0.00 88 1018.5
20260509044404 57 0 0.0 0.0 0.00 0.00 0.00 88 1018.4
20260509043904 57 0 0.0 0.0 0.00 0.00 0.00 88 1018.3
20260509043404 57 0 0.0 0.0 0.00 0.00 0.00 88 1018.2
20260509042406 57 0 0.0 0.0 0.00 0.00 0.00 88 1018.2
20260509041404 57 0 0.0 0.0 0.00 0.00 0.00 88 1018.2
20260509040903 57 0 0.0 0.0 0.00 0.00 0.00 88 1018.2
20260509040405 57 0 0.0 0.0 0.00 0.00 0.00 88 1018.2
20260509035405 57 0 0.0 0.0 0.00 0.00 0.00 88 1018.3
20260509034905 57 0 0.0 0.0 0.00 0.00 0.00 88 1018.3
20260509034403 57 0 0.0 0.0 0.00 0.00 0.00 88 1018.3
20260509033903 57 0 0.0 0.0 0.00 0.00 0.00 88 1018.4
20260509032904 57 0 0.0 0.0 0.00 0.00 0.00 88 1018.3
20260509031903 57 0 0.0 0.0 0.00 0.00 0.00 88 1018.2
20260509031405 57 0 0.0 0.0 0.00 0.00 0.00 88 1018.2
20260509030905 57 0 0.0 0.0 0.00 0.00 0.00 88 1018.2
20260509030404 57 0 0.0 0.0 0.00 0.00 0.00 88 1018.3
20260509025905 57 0 0.0 0.0 0.00 0.00 0.00 88 1018.3
20260509025414 57 0 0.0 0.0 0.00 0.00 0.00 88 1018.3
20260509024903 57 0 0.0 0.0 0.00 0.00 0.00 88 1018.3
20260509024405 57 0 0.0 0.0 0.00 0.00 0.00 88 1018.2
20260509023903 57 0 0.0 0.0 0.00 0.00 0.00 88 1018.3
20260509023403 57 0 0.0 0.0 0.00 0.00 0.00 88 1018.2
20260509022903 57 0 0.0 0.0 0.00 0.00 0.00 88 1018.3
20260509022404 57 0 0.0 0.0 0.00 0.00 0.00 88 1018.4
20260509021405 57 0 0.0 0.0 0.00 0.00 0.00 88 1018.4
20260509015905 57 0 0.0 0.0 0.00 0.00 0.00 88 1018.3
20260509015405 57 0 0.0 0.0 0.00 0.00 0.00 88 1018.3
20260509014406 57 0 0.0 0.0 0.00 0.00 0.00 88 1018.3
20260509013905 57 0 0.0 0.0 0.00 0.00 0.00 88 1018.3
20260509013404 57 0 0.0 0.0 0.00 0.00 0.00 88 1018.4
20260509012904 57 0 0.0 0.0 0.00 0.00 0.00 88 1018.4
20260509012405 57 0 0.0 0.0 0.00 0.00 0.00 88 1018.5
20260509011903 57 0 0.0 0.0 0.00 0.00 0.00 88 1018.5
20260509010907 57 0 0.0 0.0 0.00 0.00 0.00 88 1018.5
20260509010404 57 0 0.0 0.0 0.00 0.00 0.00 88 1018.6
20260509005904 57 0 0.0 0.0 0.00 0.00 0.00 88 1018.5
20260509004903 57 0 0.0 0.0 0.00 0.00 0.00 88 1018.5
20260509004406 57 0 0.0 0.0 0.00 0.00 0.00 88 1018.5
20260509003904 57 0 0.0 0.0 0.00 0.00 0.00 88 1018.6
20260509002905 57 0 0.0 0.0 0.00 0.00 0.00 88 1018.7
20260509002404 57 0 0.0 0.0 0.00 0.00 0.00 88 1018.8
20260509001904 57 0 0.0 0.0 0.00 0.00 0.00 88 1018.7
20260509001404 57 0 0.0 0.0 0.00 0.00 0.00 88 1018.9
20260509000903 57 0 0.0 0.0 0.00 0.00 0.00 88 1018.9
20260509000405 57 0 0.0 0.0 0.00 0.00 0.00 88 1019.0
20260508235404 57 0 0.0 0.0 0.00 0.00 0.00 88 1019.1
20260508234904 57 0 0.0 0.0 0.00 0.00 0.00 88 1019.1
20260508234406 57 0 0.0 0.0 0.00 0.00 0.00 88 1019.1
20260508233904 57 0 0.0 0.0 0.00 0.00 0.00 88 1019.2
20260508233404 57 0 0.0 0.0 0.00 0.00 0.00 88 1019.0
20260508232903 57 0 0.0 0.0 0.00 0.00 0.00 88 1019.1
20260508232406 57 0 0.0 0.0 0.00 0.00 0.00 88 1019.1
20260508231904 57 0 0.0 0.0 0.00 0.00 0.00 88 1019.1
20260508231404 57 0 0.0 0.0 0.00 0.00 0.00 88 1019.2
20260508230904 57 0 0.0 0.0 0.00 0.00 0.00 88 1019.2
20260508230405 57 0 0.0 0.0 0.00 0.00 0.00 88 1019.3
20260508225904 57 0 0.0 0.0 0.00 0.00 0.00 88 1019.4
20260508225404 57 0 0.0 0.0 0.00 0.00 0.00 88 1019.4
20260508224905 57 0 0.0 0.0 0.00 0.00 0.00 88 1019.4
20260508224404 57 0 0.0 0.0 0.00 0.00 0.00 88 1019.4
20260508223904 57 0 0.0 0.0 0.00 0.00 0.00 88 1019.4
20260508223404 57 0 0.0 0.0 0.00 0.00 0.00 88 1019.4
20260508222904 57 0 0.0 0.0 0.00 0.00 0.00 88 1019.5
20260508222405 57 0 0.0 0.0 0.00 0.00 0.00 88 1019.5
20260508221903 57 0 0.0 0.0 0.00 0.00 0.00 88 1019.6
20260508221404 57 0 0.0 0.0 0.00 0.00 0.00 88 1019.7
20260508220903 57 0 0.0 0.0 0.00 0.00 0.00 88 1019.8
20260508220403 57 0 0.0 0.0 0.00 0.00 0.00 88 1019.7
20260508215904 57 0 0.0 0.0 0.00 0.00 0.00 88 1019.8
20260508215403 57 0 0.0 0.0 0.00 0.00 0.00 88 1019.6
20260508214905 57 0 0.0 0.0 0.00 0.00 0.00 88 1019.6
20260508214403 57 0 0.0 0.0 0.00 0.00 0.00 88 1019.7
20260508213903 57 0 0.0 0.0 0.00 0.00 0.00 88 1019.8
20260508213403 57 0 0.0 0.0 0.00 0.00 0.00 88 1019.7
20260508212906 57 0 0.0 0.0 0.00 0.00 0.00 88 1019.7
20260508212405 57 0 0.0 0.0 0.00 0.00 0.00 88 1019.8
20260508211904 57 0 0.0 0.0 0.00 0.00 0.00 88 1019.8
20260508211405 57 0 0.0 0.0 0.00 0.00 0.00 88 1019.9
20260508210903 57 0 0.0 0.0 0.00 0.00 0.00 88 1019.9
20260508210404 57 0 0.0 0.0 0.00 0.00 0.00 88 1019.9
20260508205405 57 0 0.0 0.0 0.00 0.00 0.00 88 1020.0
20260508204903 57 0 0.0 0.0 0.00 0.00 0.00 88 1020.0
20260508204404 57 0 0.0 0.0 0.00 0.00 0.00 88 1019.9
20260508203904 57 0 0.0 0.0 0.00 0.00 0.00 88 1019.9
20260508203403 57 0 0.0 0.0 0.00 0.00 0.00 88 1019.8
20260508202905 57 0 0.0 0.0 0.00 0.00 0.00 88 1019.9
20260508202403 57 0 0.0 0.0 0.00 0.00 0.00 88 1019.8
20260508201904 57 0 0.0 0.0 0.00 0.00 0.00 88 1019.8
20260508200904 57 0 0.0 0.0 0.00 0.00 0.00 88 1020.0
20260508195405 57 0 0.0 0.0 0.00 0.00 0.00 88 1020.0
20260508194903 57 0 0.0 0.0 0.00 0.00 0.00 88 1019.9
20260508194404 57 0 0.0 0.0 0.00 0.00 0.00 88 1020.1
20260508193903 57 0 0.0 0.0 0.00 0.00 0.00 88 1019.9
20260508193405 57 0 0.0 0.0 0.00 0.00 0.00 88 1019.7
20260508192903 57 0 0.0 0.0 0.00 0.00 0.00 88 1019.6
20260508192405 57 0 0.0 0.0 0.00 0.00 0.00 88 1019.7
20260508191904 57 0 0.0 0.0 0.00 0.00 0.00 88 1019.6
20260508191404 57 0 0.0 0.0 0.00 0.00 0.00 88 1019.6
20260508190904 57 0 0.0 0.0 0.00 0.00 0.00 88 1019.7
20260508190404 57 0 0.0 0.0 0.00 0.00 0.00 88 1019.6
20260508185903 57 0 0.0 0.0 0.00 0.00 0.00 88 1019.5
20260508185403 57 0 0.0 0.0 0.00 0.00 0.00 88 1019.5
20260508184903 57 0 0.0 0.0 0.00 0.00 0.00 88 1019.3
20260508184403 57 0 0.0 0.0 0.00 0.00 0.00 88 1019.3
20260508183903 57 0 0.0 0.0 0.00 0.00 0.00 88 1019.3
20260508183404 57 0 0.0 0.0 0.00 0.00 0.00 88 1019.2
20260508182904 57 0 0.0 0.0 0.00 0.00 0.00 88 1019.3
20260508181904 57 0 0.0 0.0 0.00 0.00 0.00 88 1019.1
20260508181407 57 0 0.0 0.0 0.00 0.00 0.00 88 1019.0
20260508175904 57 0 0.0 0.0 0.00 0.00 0.00 88 1018.9
20260508175405 57 0 0.0 0.0 0.00 0.00 0.00 88 1018.7
20260508174905 57 0 0.0 0.0 0.00 0.00 0.00 88 1018.6
20260508173904 57 0 0.0 0.0 0.00 0.00 0.00 88 1018.7
20260508173404 57 0 0.0 0.0 0.00 0.00 0.00 88 1018.6
20260508172905 57 0 0.0 0.0 0.00 0.00 0.00 88 1018.6
20260508172403 57 0 0.0 0.0 0.00 0.00 0.00 88 1018.6
20260508171904 57 0 0.0 0.0 0.00 0.00 0.00 88 1018.6
20260508171404 57 0 0.0 0.0 0.00 0.00 0.00 88 1018.6
20260508170904 57 0 0.0 0.0 0.00 0.00 0.00 88 1018.4
20260508170404 57 0 0.0 0.0 0.00 0.00 0.00 88 1018.5
20260508164903 57 0 0.0 0.0 0.00 0.00 0.00 88 1018.5
20260508164404 57 0 0.0 0.0 0.00 0.00 0.00 88 1018.5
20260508163905 57 0 0.0 0.0 0.00 0.00 0.00 88 1018.6
20260508163405 57 0 0.0 0.0 0.00 0.00 0.00 88 1018.7
20260508162405 57 0 0.0 0.0 0.00 0.00 0.00 88 1018.5
20260508161906 57 0 0.0 0.0 0.00 0.00 0.00 88 1018.4
20260508161404 57 0 0.0 0.0 0.00 0.00 0.00 88 1018.5
20260508160904 57 0 0.0 0.0 0.00 0.00 0.00 88 1018.6